Location: Chin
(49.7667°N, 112.4500°W)
Time: 12:06:06
(UTC+00:00)

Envisat - Pass Details

Date: 06 December 2021
Orbit: 764 x 766 km, 98.2° (Epoch: 25 January)

Event Time Altitude Azimuth Distance (km) Brightness Sun altitude
Rises 12:36:38 0° 14° (NNE) 3,247 6.3 -24.0°
Reaches altitude 10° 12:38:58 10° 16° (NNE) 2,316 5.6 -23.7°
Maximum altitude 12:44:05 81° 104° (ESE) 781 3.0 -22.9°
Drops below altitude 10° 12:49:09 10° 192° (SSW) 2,297 5.4 -22.0°
Sets 12:51:27 0° 193° (SSW) 3,219 6.2 -21.7°
